Location: Unspecified
(32.1529°N, 0.0000°E)
Time: 04:14:06
(UTC+00:00)

CZ-6A DEB - Visible Passes

Search period start: 04 April 2026 00:00
Search period end: 14 April 2026 00:00
Orbit: 778 x 817 km, 89.0° (Epoch: 29 March)

Date Brightness Start Highest point End Pass type
(mag) Time Alt. Az. Time Alt. Az. Time Alt. Az.
6 Apr ? 04:53:47 10° SE 04:57:53 24° E 05:01:59 10° NNE visible
6 Apr ? 18:53:15 10° NW 18:56:31 17° WNW 18:59:47 10° WSW visible
7 Apr ? 04:28:03 10° ESE 04:30:35 14° ENE 04:33:08 10° NE visible
9 Apr ? 05:10:48 10° SSE 05:15:48 51° E 05:20:51 10° N visible
10 Apr ? 04:43:58 10° SE 04:48:23 29° E 04:52:50 10° NNE visible
11 Apr ? 04:17:48 10° ESE 04:21:02 17° ENE 04:24:18 10° NE visible
13 Apr ? 05:01:09 10° SSE 05:06:16 63° E 05:11:26 10° N visible
